CW3161 Weather Reports


time (UTC)temp
C
wind
direction
speed
KPH
gust
KPH
rain 1hr
cm
rain 24hr
cm
rain mn
cm
humidity
%
barometer
mb
20220627213010 36 122 6.4 19.3 0.00 0.00 0.00 15 1014.0
20220627211509 35 77 6.4 20.9 0.00 0.00 0.00 16 1014.1
20220627210009 35 68 8.0 17.7 0.00 0.00 0.00 15 1014.1
20220627204512 36 72 12.9 24.1 0.00 0.00 0.00 15 1014.2
20220627203006 35 76 9.7 17.7 0.00 0.00 0.00 17 1014.3
20220627201510 36 338 3.2 14.5 0.00 0.00 0.00 19 1014.4
20220627200004 35 93 11.3 22.5 0.00 0.00 0.00 18 1014.5
20220627194503 36 62 6.4 14.5 0.00 0.00 0.00 18 1014.5
20220627193102 35 99 1.6 17.7 0.00 0.00 0.00 19 1014.5
20220627191559 35 8 1.6 16.1 0.00 0.00 0.00 20 1014.5
20220627190058 35 72 6.4 14.5 0.00 0.00 0.00 18 1014.6
20220627184558 35 85 3.2 11.3 0.00 0.00 0.00 19 1014.5
20220627183054 34 43 0.0 9.7 0.00 0.00 0.00 22 1014.6
20220627181553 33 73 1.6 11.3 0.00 0.00 0.00 21 1014.7
20220627180103 33 67 1.6 8.0 0.00 0.00 0.00 24 1014.6
20220627174551 34 92 4.8 11.3 0.00 0.00 0.00 23 1014.6
20220627173055 33 285 0.0 8.0 0.00 0.00 0.00 24 1014.6
20220627171544 33 287 0.0 4.8 0.00 0.00 0.00 27 1014.5
20220627170042 32 258 0.0 3.2 0.00 0.00 0.00 27 1014.7
20220627164538 32 281 1.6 9.7 0.00 0.00 0.00 28 1014.7
20220627163035 31 330 0.0 6.4 0.00 0.00 0.00 28 1014.8
20220627161543 30 262 0.0 9.7 0.00 0.00 0.00 32 1015.0
20220627160028 29 252 0.0 9.7 0.00 0.00 0.00 30 1014.9
20220627154526 28 245 0.0 9.7 0.00 0.00 0.00 34 1015.0
20220627153036 27 264 3.2 11.3 0.00 0.00 0.00 32 1015.0
20220627151518 26 285 4.8 14.5 0.00 0.00 0.00 34 1015.0
20220627150015 26 260 0.0 12.9 0.00 0.00 0.00 35 1015.0
20220627144511 25 258 1.6 6.4 0.00 0.00 0.00 36 1014.8
20220627143005 24 276 1.6 9.7 0.00 0.00 0.00 37 1014.6
20220627141504 23 287 0.0 11.3 0.00 0.00 0.00 38 1014.3
20220627140110 22 274 0.0 4.8 0.00 0.00 0.00 39 1014.2
20220627134601 21 276 1.6 8.0 0.00 0.00 0.00 39 1014.2
20220627134501 21 293 1.6 11.3 0.00 0.00 0.00 39 1014.1
20220627133059 21 289 3.2 9.7 0.00 0.00 0.00 39 1014.0
20220627131558 21 283 0.0 4.8 0.00 0.00 0.00 38 1013.9
20220627130057 21 283 0.0 3.2 0.00 0.00 0.00 38 1013.9
20220627124556 21 295 0.0 3.2 0.00 0.00 0.00 38 1013.8
20220627123054 21 276 0.0 6.4 0.00 0.00 0.00 38 1013.7
20220627121552 21 241 1.6 6.4 0.00 0.00 0.00 38 1013.7
20220627120051 21 236 0.0 4.8 0.00 0.00 0.00 38 1013.6
20220627114551 21 269 0.0 6.4 0.00 0.00 0.00 38 1013.5
20220627113048 21 269 0.0 4.8 0.00 0.00 0.00 38 1013.4
20220627111558 21 263 0.0 4.8 0.00 0.00 0.00 38 1013.3
20220627110045 22 272 0.0 4.8 0.00 0.00 0.00 38 1013.3
20220627104544 22 272 0.0 6.4 0.00 0.00 0.00 38 1013.1
20220627103042 22 268 0.0 1.6 0.00 0.00 0.00 37 1013.2
20220627101541 22 269 0.0 8.0 0.00 0.00 0.00 37 1013.1
20220627100039 22 308 0.0 9.7 0.00 0.00 0.00 38 1012.9
20220627094538 22 285 0.0 11.3 0.00 0.00 0.00 38 1012.9
20220627093037 22 285 0.0 4.8 0.00 0.00 0.00 38 1012.8
20220627091534 22 299 0.0 3.2 0.00 0.00 0.00 38 1012.8
20220627090038 22 271 0.0 3.2 0.00 0.00 0.00 37 1012.8
20220627084531 22 270 0.0 3.2 0.00 0.00 0.00 37 1012.8
20220627083029 23 262 1.6 9.7 0.00 0.00 0.00 36 1012.8
20220627081531 23 283 0.0 4.8 0.00 0.00 0.00 36 1012.8
20220627080027 23 224 0.0 3.2 0.00 0.00 0.00 36 1012.7
20220627074525 23 283 0.0 6.4 0.00 0.00 0.00 35 1012.7
20220627073023 23 230 0.0 6.4 0.00 0.00 0.00 35 1012.8
20220627071520 23 266 1.6 9.7 0.00 0.00 0.00 35 1012.8
20220627070020 23 279 0.0 1.6 0.00 0.00 0.00 34 1012.8
20220627064517 24 297 0.0 6.4 0.00 0.00 0.00 33 1013.0
20220627063016 24 270 0.0 3.2 0.00 0.00 0.00 33 1012.8
20220627061514 25 280 0.0 1.6 0.00 0.00 0.00 32 1012.9
20220627060018 25 216 0.0 4.8 0.00 0.00 0.00 32 1013.0
20220627054513 25 258 0.0 4.8 0.00 0.00 0.00 32 1013.1
20220627053011 25 258 0.0 1.6 0.00 0.00 0.00 31 1013.0
20220627051511 26 260 0.0 1.6 0.00 0.00 0.00 30 1013.0
20220627050010 26 251 0.0 0.0 0.00 0.00 0.00 28 1012.9
20220627044511 27 118 0.0 0.0 0.00 0.00 0.00 28 1012.7
20220627043012 28 118 0.0 1.6 0.00 0.00 0.00 26 1012.7
20220627041509 29 102 0.0 4.8 0.00 0.00 0.00 25 1012.5
20220627040010 29 77 0.0 3.2 0.00 0.00 0.00 25 1012.5
20220627034508 29 62 0.0 3.2 0.00 0.00 0.00 24 1012.5
20220627033008 30 66 1.6 4.8 0.00 0.00 0.00 23 1012.3
20220627031520 31 65 0.0 9.7 0.00 0.00 0.00 21 1012.4
20220627030016 32 82 3.2 9.7 0.00 0.00 0.00 20 1012.4
20220627024508 32 72 6.4 14.5 0.00 0.00 0.00 20 1012.3
20220627023010 33 78 8.0 14.5 0.00 0.00 0.00 19 1012.3
20220627021505 33 116 6.4 19.3 0.00 0.00 0.00 18 1012.2
20220627020004 33 64 9.7 20.9 0.00 0.00 0.00 16 1012.2
20220627014605 34 68 9.7 19.3 0.00 0.00 0.00 15 1012.1
20220627013002 34 79 9.7 17.7 0.00 0.00 0.00 15 1012.0
20220627011600 35 51 4.8 20.9 0.00 0.00 0.00 16 1012.0
20220627010100 35 79 11.3 24.1 0.00 0.00 0.00 16 1012.0
20220627004601 35 72 4.8 19.3 0.00 0.00 0.00 16 1011.9
20220627003058 35 52 6.4 20.9 0.00 0.00 0.00 15 1012.0
20220627001556 36 71 3.2 12.9 0.00 0.00 0.00 14 1012.0
20220627000058 35 87 6.4 17.7 0.00 0.00 0.00 14 1012.1
20220626234555 35 21 8.0 17.7 0.00 0.00 0.00 16 1012.2
20220626233055 35 40 6.4 24.1 0.00 0.00 0.00 16 1012.3
20220626231554 36 79 3.2 17.7 0.00 0.00 0.00 16 1012.4
20220626230051 35 22 11.3 22.5 0.00 0.00 0.00 14 1012.5
20220626224552 35 94 6.4 17.7 0.00 0.00 0.00 15 1012.6
20220626223112 35 46 9.7 19.3 0.00 0.00 0.00 14 1012.8
20220626221550 36 93 1.6 16.1 0.00 0.00 0.00 14 1012.8
20220626220048 36 37 1.6 16.1 0.00 0.00 0.00 14 1012.9
20220626214545 36 97 4.8 17.7 0.00 0.00 0.00 15 1012.9